Overview Statistics Trail Chart Weather Telemetry Raw packets
 

This is the latest recevied weather packets stored in our database for station/object W0WC. If no packets are shown the sender has not sent any weather packets the latest 10 day(s).

<< 88 89 90 91 92 93 94 >>
Time Temp. Humidity Pressure Rain* Wind** Luminosity Snow
1788041352 37.22° C 29% 1015.3 hPa 0 mm - 111 W/m² -
1788041051 36.67° C 29% 1015.1 hPa 0 mm - 335 W/m² -
1788040750 36.67° C 29% 1015.3 hPa 0 mm - 347 W/m² -
1788040444 36.67° C 29% 1015.4 hPa 0 mm - 217 W/m² -
1788040141 37.22° C 29% 1015.4 hPa 0 mm - 165 W/m² -
1788039835 37.22° C 29% 1015.3 hPa 0 mm - 205 W/m² -
1788039535 38.33° C 28% 1015.5 hPa 0 mm - 408 W/m² -
1788039231 37.78° C 29% 1015.4 hPa 0 mm - 437 W/m² -
1788038925 37.78° C 29% 1015.6 hPa 0 mm - 456 W/m² -
1788038621 38.33° C 27% 1015.6 hPa 0 mm - 470 W/m² -
1788038320 37.78° C 28% 1015.5 hPa 0 mm - 487 W/m² -
1788038016 37.78° C 27% 1015.8 hPa 0 mm - 497 W/m² -
1788037716 38.33° C 26% 1015.7 hPa 0 mm - 512 W/m² -
1788037411 37.78° C 26% 1015.8 hPa 0 mm - 521 W/m² -
1788037110 37.78° C 26% 1015.8 hPa 0 mm - 536 W/m² -
1788036806 37.78° C 25% 1016 hPa 0 mm - 553 W/m² -
1788036503 37.22° C 27% 1016 hPa 0 mm - 568 W/m² -
1788036198 37.78° C 27% 1016.2 hPa 0 mm - 583 W/m² -
1788035898 37.78° C 27% 1016.1 hPa 0 mm - 599 W/m² -
1788035597 37.22° C 29% 1016.1 hPa 0 mm - 596 W/m² -
1788035293 37.22° C 29% 1016.4 hPa 0 mm - 561 W/m² -
1788034988 37.78° C 28% 1016.4 hPa 0 mm - 614 W/m² -
1788034685 37.78° C 29% 1016.6 hPa 0 mm - 625 W/m² -
1788034381 37.78° C 28% 1016.2 hPa 0 mm - 665 W/m² -
1788034076 37.78° C 28% 1016.7 hPa 0 mm - 700 W/m² -

* Rain latest hour (hover to see other rain measurements)
** Current wind speed in m/s (hover to see current wind gust speed)